Location: Gaast
(52.9002°N, 5.8891°E)
Time: 23:11:05
(UTC+00:00)

Cosmos 2297 Rocket - Pass Details

Date: 18 November 2025
Orbit: 837 x 844 km, 71.0° (Epoch: 04 December)

Event Time Altitude Azimuth Distance (km) Brightness Sun altitude
Rises 16:41:15 0° 306° (NW) 3,407 5.9 -9.5°
Reaches altitude 10° 16:45:27 10° 336° (NNW) 2,474 4.7 -10.1°
Maximum altitude 16:47:43 12° 360° (N) 2,311 4.3 -10.4°
Drops below altitude 10° 16:50:00 10° 24° (NNE) 2,475 4.2 -10.7°
Enters shadow 16:51:19 - 35° (NE) 2,703 4.4 -10.9°
